Volver al catálogo

SL-14 DEB

ActivoPO
NORAD 26029·DEBRIS·🇷🇺 Russia

Lanzado Sep 28, 1991 desde Plesetsk Cosmodrome

Loading…

Próximos Pases (próximas 24 horas)

TLE

ActualizadoSource: Space-Track

Época: Sep 14, 2026, 17:42 UTC

1 26029U 91068AQ  26257.73775998  .00000047  00000-0  21690-3 0  9992
2 26029  82.5763   5.5713 0041230 174.5164 339.3586 12.56468237254711

Sigue SL-14 DEB en tiempo real con AllMySat

Download on the App Store